Starlink 4388

operational
NORAD ID: 53651 Int'l Des: 2022-105 Owner: SPXS Country: US Constellation: starlink
LEOCIRCULARRETROGRADESSO

About Starlink 4388

Description loading...

Live Position

Loading 3D Globe...

Upcoming Passes

Altitude History

Altitude vs Time

uPlot chart will show altitude changes over time

Two-Line Element Set

1 53651U 22105D 25305.39655628 -.00001742 00000-0 -11658-3 0 9999
2 53651 97.6009 184.7741 0002193 92.1685 267.9793 15.05629751173994
Epoch: Nov 1, 2025 • Age: 17 hours

Current Status

Altitude 551.8 km
Velocity 7.59 km/s
Sub-Earth Point 7.59°N, 68.59°W
Launch Date Aug 31, 2022
Age 3.1 years
Type internet

Technical Details

Classification Payload
Mass 300.00 kg
Dry Mass 290.00 kg
Total Mass 300.00 kg
Length 0.20 m
Diameter 2.80 m
Span 9.00 m
Shape Box + pan
Manufacturer SPXS
Bus Type Starlink
Phase Status In Orbit
Owner/State SPXS/US

Large Constellations

Loading constellations...